Location: ????
(30.1475°N, 31.1342°E)
Time: 04:30:24
(UTC+00:00)

Cosmos 1802 Rocket - Pass Details

Date: 27 September 2022
Orbit: 954 x 1011 km, 82.9° (Epoch: 01 December)

Event Time Altitude Azimuth Distance (km) Brightness Sun altitude
Rises 03:07:37 0° 200° (SSW) 3,728 6.8 -9.2°
Reaches altitude 10° 03:10:15 10° 206° (SSW) 2,780 6.1 -8.7°
Maximum altitude 03:16:22 47° 279° (W) 1,302 4.3 -7.3°
Drops below altitude 10° 03:22:29 10° 352° (N) 2,771 6.3 -6.0°
Sets 03:25:07 0° 358° (N) 3,716 7.0 -5.4°
